User: anonymous   Login
Location: *
(58.7167°N, 26.1833°E)
Time: 04:57:59
(UTC+00:00)
Language:

Cosmos 1378 - Orbit

View from above orbital plane
View from above orbital plane
View from above satellite
View from above satellite

Ground track
Ground track

The orbit data is extracted from the following two-line orbital elements,

1 13271U 82059A   19296.44268487  .00000806  00000-0  33214-4 0  9999
2 13271  82.4653  71.4360 0007501 161.1465 199.0051 15.22631875 40483
Epoch (UTC): 23 October 2019 10:37:27
Eccentricity: 0.0007501
inclination: 82.4653°
perigee height: 493 km
apogee height: 503 km
right ascension of ascending node: 71.4360°
argument of perigee: 161.1465°
revolutions per day: 15.22631875
mean anomaly at epoch: 199.0051°
orbit number at epoch: 4048

The dashed part of the orbit path shows where the satellite is in the earth's shadow,  

DLR